Theta_e
321 320 320 321 324 325 325 327 327 328 328 329 330 329 328 327 326 320 313 322 322 326 323 318 318 314 313 311 315 315 305 302 303 303 301 308 306 308 308 310 310 314 316 323 331
320 320 319 320 323 324 325 326 326 326 327 328 329 329 328 327 318 315 328 334 331 327 317 316 313 313 311 308 310 311 305 306 311 308 303 307 307 306 306 309 308 312 321 330 330
319 319 319 320 322 323 324 325 325 325 326 327 328 328 327 325 314 317 334 334 332 328 324 321 318 314 309 309 306 313 308 312 313 308 306 306 306 307 304 305 308 310 318 326 327
318 319 319 319 321 322 323 324 324 324 324 326 326 327 326 321 303 322 333 333 332 326 322 319 315 311 307 306 309 304 314 315 315 306 304 303 305 304 305 304 306 311 322 326 324
317 317 318 318 320 321 323 324 324 324 323 324 325 326 321 312 313 322 331 331 327 325 321 318 312 308 306 308 309 306 309 312 305 304 304 303 302 300 303 307 307 315 321 324 325
316 316 317 318 319 320 322 323 324 323 323 323 324 325 317 304 324 327 328 326 324 323 321 321 316 314 309 309 308 310 310 308 304 302 302 302 301 300 303 306 305 312 317 321 322
315 316 316 317 319 320 321 322 323 323 323 322 322 320 314 310 324 319 327 324 324 322 319 323 324 313 310 307 308 307 305 305 302 305 304 303 300 298 304 304 304 307 314 318 321
315 315 316 317 318 319 320 322 320 320 321 321 320 315 308 322 325 314 322 321 324 323 321 324 324 316 312 307 304 300 299 297 304 304 302 300 300 308 305 304 303 304 306 313 319
314 314 315 315 316 318 320 320 319 320 321 321 314 310 301 319 315 317 321 317 318 318 318 322 318 308 308 300 297 299 293 296 300 306 300 298 298 308 312 306 303 303 305 309 313
313 313 314 315 316 316 318 319 318 318 318 317 314 304 305 307 315 316 319 320 315 313 309 308 310 303 299 300 292 292 294 297 297 302 302 296 297 304 305 301 303 304 304 305 310
313 313 314 314 315 315 315 312 305 303 307 302 301 299 302 309 317 315 318 317 311 307 299 303 297 296 300 303 304 300 299 298 302 302 298 298 298 302 305 306 301 302 304 305 308
312 313 314 314 314 315 313 304 304 308 298 306 304 304 307 308 306 311 317 305 302 298 301 297 295 302 305 303 302 302 300 300 301 297 294 296 297 301 302 303 305 305 304 304 304
312 312 313 313 314 311 307 306 312 310 297 299 304 301 303 305 301 306 311 305 300 298 299 295 298 305 304 302 299 300 299 300 301 296 295 293 293 297 301 303 302 303 303 304 304
311 311 312 313 307 307 304 311 312 310 287 291 297 300 302 302 297 312 312 305 301 297 300 298 302 301 300 300 300 297 302 302 300 293 288 295 284 293 296 301 303 302 299 300 301
311 311 312 311 303 302 305 312 308 303 275 293 296 307 303 297 301 303 311 306 298 299 299 294 297 297 298 299 302 297 301 299 296 294 292 291 286 289 295 294 298 303 302 301 301
310 310 311 308 307 307 311 310 304 283 275 288 296 295 296 296 299 303 304 305 306 301 299 295 301 301 300 301 301 300 296 296 294 292 284 290 288 286 290 294 296 298 304 305 305
309 309 307 307 301 310 310 301 283 276 287 285 286 294 293 292 295 298 296 295 295 290 291 293 296 296 302 298 299 297 292 282 282 283 280 285 286 289 294 295 296 296 298 297 299
309 308 306 305 308 309 304 289 277 282 284 288 289 291 290 293 293 295 293 291 298 295 291 288 285 293 298 298 293 293 293 283 277 278 279 282 280 287 296 296 297 295 294 296 295
307 302 302 304 307 306 294 280 280 285 289 288 289 286 285 290 290 292 290 292 296 297 290 288 287 296 297 301 298 293 291 293 283 276 279 283 287 294 296 295 296 296 296 295 295
299 298 298 304 306 300 288 281 284 291 292 291 285 286 284 285 287 289 290 296 295 298 297 292 284 292 294 298 295 296 296 286 286 274 274 281 282 285 289 293 294 294 294 294 294
297 289 298 304 302 292 280 280 285 292 293 290 288 286 285 286 288 288 290 295 298 296 297 293 289 286 290 289 289 288 290 290 289 286 279 277 282 291 292 294 292 292 294 294 294
294 284 299 302 286 287 281 286 290 288 294 292 290 291 287 289 288 288 288 293 299 298 292 292 288 281 286 287 289 292 292 290 285 282 284 283 283 292 293 293 293 293 295 294 295
289 290 300 298 280 281 285 285 288 289 289 290 288 290 294 288 287 292 293 299 299 297 291 292 285 280 283 287 287 288 290 293 289 287 282 279 282 291 292 292 293 294 294 295 295
291 283 290 291 290 284 281 284 284 290 290 291 290 291 289 287 292 290 293 297 299 298 296 295 287 284 281 284 287 284 289 292 289 281 283 285 286 288 289 290 292 292 293 294 295
292 286 288 281 283 285 286 284 284 284 289 291 288 288 288 284 287 289 293 295 297 297 294 292 281 285 287 287 288 288 289 289 289 289 285 288 289 291 292 292 293 293 294 294 293
285 287 291 286 287 286 286 283 283 286 288 286 287 289 290 286 287 287 293 293 291 294 292 293 280 283 280 286 287 286 290 290 291 291 290 290 289 293 296 296 294 293 293 293 293
292 293 292 287 286 284 284 284 285 287 289 291 290 289 288 290 293 293 299 298 295 293 291 289 282 282 273 284 284 279 287 289 291 292 292 287 291 292 291 293 293 293 293 294 294
Wind_Speed
20 18 17 17 15 15 15 15 12 9 12 11 12 13 13 11 8 7 12 7 9 7 2 6 6 6 1 3 2 2 5 5 7 3 5 6 5 2 1 6 3 4 5 8 16
21 19 18 18 16 15 15 16 16 9 9 10 10 14 13 12 13 17 6 14 15 14 8 9 9 6 4 3 2 4 4 7 11 6 1 6 6 8 5 8 4 6 7 15 15
21 19 18 18 16 16 16 16 16 16 10 11 9 15 16 12 15 11 15 15 13 11 8 11 14 10 9 5 4 3 4 9 11 6 8 4 4 4 4 6 8 11 10 15 14
21 19 18 17 17 17 17 17 16 16 17 9 11 14 16 10 14 16 23 20 16 10 11 7 8 11 9 9 9 5 6 5 6 1 1 3 2 4 6 3 5 5 18 14 16
21 19 17 16 17 18 17 17 18 18 15 12 8 13 11 11 13 1 24 23 18 12 13 12 9 12 14 11 9 7 5 10 2 3 3 3 4 2 7 6 8 9 14 16 13
21 18 16 16 17 18 17 17 19 18 14 13 9 12 9 22 8 11 16 16 18 19 15 14 8 11 6 11 12 6 7 7 7 5 3 4 5 3 8 8 10 9 11 12 11
20 17 16 16 16 17 16 17 20 20 18 14 13 6 15 17 16 13 17 17 18 19 17 13 9 5 3 4 4 2 7 6 6 6 4 5 8 7 8 3 8 9 10 10 11
19 18 17 15 15 16 15 15 18 18 19 17 15 5 8 15 12 18 16 15 15 14 11 11 5 1 3 6 2 3 1 5 6 9 4 5 8 11 11 9 9 10 9 10 15
20 19 19 15 12 12 14 13 16 16 15 16 6 6 9 5 13 20 20 16 19 14 10 11 8 4 3 4 2 6 4 6 4 14 7 8 2 7 9 12 9 8 10 10 9
19 20 18 16 13 10 9 13 12 11 12 9 4 6 5 8 13 19 18 18 20 17 10 7 5 6 4 11 12 6 4 8 7 8 8 7 10 8 5 2 7 8 8 10 11
22 21 19 17 15 13 10 7 6 7 9 7 6 3 8 3 12 19 22 22 17 20 12 11 8 14 19 14 7 14 12 8 12 5 5 9 9 11 10 8 8 8 8 7 11
23 23 20 18 16 15 9 6 12 1 7 18 10 12 9 2 11 22 27 18 24 26 17 11 19 18 14 15 14 9 12 10 5 6 2 7 12 9 10 10 10 10 9 9 7
23 22 20 18 17 9 9 8 7 1 3 5 13 16 13 3 13 25 28 16 27 24 25 21 15 18 19 18 17 14 11 9 6 5 5 6 11 12 11 11 9 10 8 9 9
24 22 20 20 11 10 8 12 7 5 3 10 10 8 8 6 10 22 24 21 10 27 25 12 11 19 19 19 17 16 11 9 8 4 2 7 7 6 5 16 17 13 11 12 10
23 23 24 21 8 11 9 13 7 4 7 7 11 14 11 13 7 19 24 6 19 16 14 15 22 24 22 18 13 5 9 4 6 1 6 5 2 7 7 6 8 18 14 13 12
25 25 25 8 3 11 14 15 4 5 10 6 6 15 12 18 12 22 16 1 12 15 5 4 4 13 7 8 9 8 10 7 3 2 7 10 8 6 6 7 8 4 10 14 12
25 23 16 8 7 10 16 8 6 10 6 6 8 14 25 11 16 23 15 17 14 18 16 4 7 4 10 15 6 8 12 4 2 5 8 6 8 11 5 3 2 1 6 4 3
24 21 9 4 10 11 9 5 7 11 7 2 2 2 13 15 11 25 15 17 15 17 18 14 11 13 12 24 14 20 13 7 8 6 4 4 8 7 8 2 5 3 3 6 4
24 5 6 4 4 6 7 10 6 3 12 6 5 5 3 5 7 18 15 18 16 21 14 13 5 10 15 19 14 15 17 5 8 0 2 6 7 8 9 4 4 7 7 7 6
8 7 6 8 4 4 5 11 4 1 5 7 8 4 4 8 8 12 22 19 16 15 9 6 8 7 7 8 5 18 11 5 2 6 5 5 5 7 4 7 6 5 5 3 4
8 6 9 11 5 4 8 6 6 6 5 6 9 4 3 7 7 12 24 15 23 19 10 14 8 2 7 8 18 7 16 6 5 5 6 2 7 6 10 8 8 7 6 5 3
6 6 14 12 8 6 8 6 8 13 7 2 3 5 5 11 8 8 20 18 26 23 20 4 8 10 12 3 5 6 12 5 6 6 2 3 7 3 9 9 9 8 7 5 3
9 5 13 13 9 11 6 13 7 4 11 7 8 4 7 4 8 11 21 9 26 22 13 8 6 11 4 6 1 10 10 17 6 4 7 6 6 2 8 8 6 8 6 6 5
4 6 6 9 3 13 14 9 9 15 8 10 5 6 3 3 10 15 15 12 25 20 13 8 5 7 15 12 8 8 14 14 5 4 5 12 5 6 6 7 7 5 6 3 6
2 4 6 13 14 15 15 12 16 7 13 11 4 13 8 6 10 13 17 9 18 19 9 8 6 6 7 9 12 20 14 7 16 8 9 13 14 9 10 10 10 10 4 4 3
6 4 2 9 18 15 19 15 21 19 9 12 18 17 12 13 16 4 15 15 18 16 18 8 5 7 4 7 10 20 22 20 28 27 20 11 12 4 9 6 6 3 2 2 3
2 2 1 6 15 15 15 21 24 23 19 19 20 10 17 23 17 21 21 24 16 28 21 12 8 7 1 7 11 0 28 29 26 21 28 15 13 6 6 4 6 6 4 4 5
Wind_Direction
230 228 232 237 240 235 232 227 218 213 209 208 199 176 174 193 147 186 205 209 174 144 95 285 253 232 313 62 61 130 69 270 238 296 111 143 120 24 348 115 79 48 45 134 140
225 224 229 235 234 230 226 222 212 210 206 204 204 176 172 180 208 217 203 134 138 146 153 205 228 221 190 150 202 176 136 242 337 341 49 157 193 136 161 126 124 95 78 114 139
222 220 224 230 233 226 221 219 212 211 219 195 197 183 169 180 233 222 172 148 157 166 229 184 235 222 233 151 185 198 192 159 286 346 355 153 228 117 195 173 188 166 156 143 148
219 218 220 226 231 225 220 214 208 215 207 210 181 185 166 193 229 187 165 154 149 176 223 178 218 223 223 203 175 203 209 175 224 229 358 289 298 159 234 119 94 137 156 154 165
216 214 217 223 226 220 218 211 207 207 201 195 187 184 173 219 227 352 167 155 150 176 198 196 211 198 221 193 190 210 212 176 99 126 253 38 251 248 215 198 107 97 149 165 168
210 209 211 220 219 217 214 212 206 205 196 193 171 188 213 229 217 147 162 162 165 177 187 194 213 225 271 215 218 176 209 186 156 182 205 248 211 126 234 244 133 149 163 170 178
203 203 206 208 211 212 211 210 206 204 183 172 154 218 214 220 193 153 166 184 179 177 172 190 235 197 337 174 357 80 208 163 162 209 235 201 267 218 244 138 157 181 176 171 181
196 199 194 194 201 206 206 209 208 193 190 191 208 207 258 190 228 166 169 185 199 191 183 174 134 118 25 332 162 212 254 181 200 166 198 172 253 219 220 204 208 190 210 187 184
193 191 186 178 184 195 198 201 198 193 193 189 188 191 256 318 214 194 166 172 179 175 199 141 133 144 69 116 127 213 180 200 273 185 133 182 268 241 251 210 198 224 195 189 193
183 185 179 175 167 163 174 187 186 183 188 186 173 173 249 261 192 188 179 161 162 154 112 116 131 166 181 184 200 140 200 186 208 195 192 195 242 286 305 342 210 237 248 186 178
179 181 175 171 160 165 135 123 153 199 202 192 128 177 250 308 224 183 172 157 158 160 162 172 159 202 186 194 188 173 191 198 216 150 153 238 249 241 236 240 219 244 248 238 181
176 176 171 164 163 170 184 189 196 23 190 217 186 178 219 117 245 186 160 154 166 178 145 154 214 193 192 191 225 191 171 214 353 121 173 266 261 232 219 231 215 217 239 250 200
176 171 166 161 157 155 183 176 107 64 174 203 193 199 185 214 259 179 169 143 177 172 173 178 179 171 182 192 202 218 209 187 199 152 226 294 282 237 235 238 213 216 208 240 221
174 167 160 148 143 170 189 123 139 102 218 195 184 223 190 216 276 183 183 148 170 185 184 193 166 185 190 192 187 207 220 155 199 112 241 154 285 310 278 223 217 212 210 221 229
170 165 156 155 144 174 157 131 129 72 250 181 159 149 173 174 205 199 183 198 164 167 170 187 185 182 191 187 180 190 116 99 95 285 324 236 265 268 231 261 212 213 215 216 216
162 159 156 178 103 155 138 135 126 149 213 218 164 175 161 181 229 168 201 57 153 157 194 61 149 172 151 144 147 134 114 95 104 121 265 216 204 263 212 217 217 194 201 214 218
155 150 157 146 136 134 139 141 150 205 105 212 224 176 177 177 201 181 175 167 161 146 171 126 176 66 158 144 122 155 135 123 164 201 231 347 197 238 270 121 68 304 273 310 40
146 144 147 120 146 136 150 121 213 175 193 162 263 313 175 167 196 178 163 171 170 169 151 157 176 164 186 175 178 174 166 152 179 187 202 310 230 247 244 14 129 222 261 296 272
134 119 126 124 116 143 161 187 189 159 194 150 96 217 168 165 160 164 172 176 177 171 159 163 161 173 175 167 147 198 196 127 105 5 71 202 252 289 262 218 256 266 188 240 247
134 129 146 152 144 136 174 212 186 160 128 153 190 217 191 165 163 186 171 191 174 176 130 156 101 173 169 147 218 183 152 152 211 151 235 251 234 228 205 205 215 170 179 107 58
111 119 152 153 137 176 199 207 210 202 182 166 191 152 230 179 176 182 180 191 179 185 167 122 115 147 132 204 185 156 185 183 133 167 172 154 258 205 174 166 157 116 96 72 40
128 159 156 150 163 190 208 177 201 201 165 140 104 198 203 197 176 156 188 189 183 173 176 125 114 150 193 342 6 234 191 150 165 207 213 151 267 194 136 139 129 142 135 141 160
151 110 161 170 168 189 216 219 225 191 181 171 200 166 177 248 198 205 185 200 196 178 158 172 135 116 152 339 300 208 221 191 95 93 199 130 254 286 120 125 146 143 149 162 159
133 144 145 198 207 187 187 206 189 219 218 202 192 168 183 288 273 215 194 212 179 170 126 100 131 168 183 180 111 185 203 199 133 137 159 220 144 158 171 176 170 185 219 219 149
153 168 156 172 210 193 186 195 197 190 219 190 195 230 199 236 263 229 223 162 197 156 149 118 133 128 161 152 149 173 192 198 214 192 188 225 215 213 194 190 188 195 220 325 335
130 145 200 164 193 202 196 211 199 202 158 208 220 199 197 213 216 256 166 178 181 185 179 171 143 117 37 151 157 180 192 190 205 208 229 249 263 162 223 226 199 208 260 252 226
169 1 122 188 184 190 200 210 212 206 212 211 204 203 205 214 208 226 224 182 180 180 183 159 125 132 148 123 105 13 202 196 217 206 215 210 217 132 119 130 183 245 280 245 243